TimeCST,TemperatureF,Dew PointF,Humidity,Sea Level PressureIn,VisibilityMPH,Wind Direction,Wind SpeedMPH,Gust SpeedMPH,PrecipitationIn,Events,Conditions,WindDirDegrees,DateUTC
12:15 AM,50.4,34.3,54,29.82,10.0,ESE,4.6,-,N/A,,Mostly Cloudy,110,2014-02-20 06:15:00
12:35 AM,50.4,34.5,55,29.82,10.0,ESE,4.6,-,N/A,,Scattered Clouds,120,2014-02-20 06:35:00
12:55 AM,50.4,34.7,55,29.81,10.0,ESE,3.5,-,N/A,,Scattered Clouds,110,2014-02-20 06:55:00
1:15 AM,50.2,35.1,56,29.80,10.0,ESE,4.6,-,N/A,,Clear,120,2014-02-20 07:15:00
1:35 AM,51.1,36.1,57,29.80,10.0,SE,4.6,-,N/A,,Mostly Cloudy,130,2014-02-20 07:35:00
1:55 AM,53.1,37.8,56,29.79,10.0,SE,4.6,-,N/A,,Overcast,130,2014-02-20 07:55:00
2:15 AM,53.1,39.4,60,29.77,10.0,SE,5.8,-,N/A,,Mostly Cloudy,130,2014-02-20 08:15:00
2:35 AM,53.8,41.5,63,29.77,10.0,SE,4.6,-,N/A,,Scattered Clouds,140,2014-02-20 08:35:00
2:55 AM,54.5,43.2,66,29.76,10.0,SE,5.8,-,N/A,,Overcast,140,2014-02-20 08:55:00
3:15 AM,55.4,45.7,70,29.75,10.0,SSE,4.6,-,N/A,,Overcast,150,2014-02-20 09:15:00
3:35 AM,57.7,49.3,73,29.74,10.0,SSE,8.1,-,N/A,,Overcast,160,2014-02-20 09:35:00
3:55 AM,58.3,50.2,74,29.73,10.0,SSE,9.2,-,N/A,,Overcast,160,2014-02-20 09:55:00
4:15 AM,59.2,51.4,75,29.73,10.0,South,9.2,16.1,N/A,,Overcast,170,2014-02-20 10:15:00
4:35 AM,59.7,52.2,76,29.73,10.0,South,9.2,-,N/A,,Mostly Cloudy,170,2014-02-20 10:35:00
4:55 AM,59.9,52.9,78,29.74,10.0,South,6.9,-,N/A,,Scattered Clouds,170,2014-02-20 10:55:00
5:15 AM,59.9,53.1,78,29.75,10.0,South,6.9,-,N/A,,Scattered Clouds,170,2014-02-20 11:15:00
5:35 AM,59.9,53.2,79,29.71,10.0,SE,8.1,-,N/A,,Clear,140,2014-02-20 11:35:00
5:55 AM,60.4,53.6,78,29.72,10.0,SSE,9.2,-,N/A,,Scattered Clouds,160,2014-02-20 11:55:00
6:15 AM,62.1,54.3,76,29.73,10.0,South,12.7,18.4,N/A,,Scattered Clouds,180,2014-02-20 12:15:00
6:35 AM,62.8,54.5,74,29.73,10.0,South,11.5,24.2,N/A,,Mostly Cloudy,180,2014-02-20 12:35:00
6:55 AM,63.0,54.5,74,29.73,10.0,South,11.5,21.9,N/A,,Overcast,180,2014-02-20 12:55:00
7:15 AM,63.1,54.5,73,29.73,10.0,South,11.5,20.7,N/A,,Overcast,180,2014-02-20 13:15:00
7:35 AM,63.1,54.5,73,29.72,10.0,South,12.7,20.7,N/A,,Overcast,180,2014-02-20 13:35:00
7:55 AM,63.1,54.5,73,29.72,10.0,South,12.7,20.7,N/A,,Overcast,180,2014-02-20 13:55:00
8:15 AM,62.8,54.9,75,29.70,10.0,South,12.7,19.6,N/A,,Overcast,170,2014-02-20 14:15:00
8:35 AM,63.0,54.7,74,29.70,10.0,South,13.8,18.4,N/A,,Overcast,170,2014-02-20 14:35:00
8:55 AM,63.5,54.5,72,29.68,10.0,South,16.1,23.0,N/A,,Overcast,180,2014-02-20 14:55:00
9:15 AM,64.2,54.5,71,29.68,10.0,South,11.5,23.0,N/A,,Overcast,180,2014-02-20 15:15:00
9:35 AM,64.4,54.5,70,29.67,10.0,South,12.7,27.6,N/A,,Overcast,180,2014-02-20 15:35:00
9:55 AM,64.8,54.5,69,29.66,10.0,South,17.3,29.9,N/A,,Overcast,180,2014-02-20 15:55:00
10:15 AM,65.3,54.5,68,29.67,10.0,South,18.4,25.3,N/A,,Overcast,190,2014-02-20 16:15:00
10:35 AM,64.8,55.0,71,29.66,10.0,South,19.6,25.3,N/A,,Overcast,180,2014-02-20 16:35:00
10:55 AM,63.0,56.8,80,29.65,5.0,South,17.3,27.6,N/A,,Light Drizzle,180,2014-02-20 16:55:00
2:15 PM,67.8,57.4,69,29.55,10.0,South,17.3,27.6,N/A,,Overcast,190,2014-02-20 20:15:00
5:35 PM,67.5,58.1,72,29.52,10.0,South,26.5,36.8,N/A,Rain,Light Rain,180,2014-02-20 23:35:00
5:55 PM,66.2,57.2,73,29.53,10.0,SSW,26.5,40.3,N/A,Thunderstorm,Thunderstorm,200,2014-02-20 23:55:00
6:15 PM,65.7,55.4,69,29.55,10.0,SSW,18.4,28.8,N/A,,Light Drizzle,210,2014-02-21 00:15:00
6:35 PM,64.8,54.5,69,29.57,7.0,SW,25.3,33.4,0.03,Rain,Light Rain,220,2014-02-21 00:35:00
6:55 PM,63.1,53.8,71,29.59,7.0,WSW,18.4,34.5,0.05,Rain,Heavy Rain,250,2014-02-21 00:55:00
7:15 PM,59.5,39.9,48,29.62,10.0,West,23.0,38.0,N/A,,Overcast,280,2014-02-21 01:15:00
7:35 PM,57.2,37.6,48,29.65,10.0,WNW,24.2,28.8,N/A,,Mostly Cloudy,300,2014-02-21 01:35:00
7:55 PM,52.5,36.0,53,29.69,10.0,WNW,20.7,34.5,N/A,,Mostly Cloudy,290,2014-02-21 01:55:00
8:15 PM,49.6,33.3,53,29.72,10.0,WNW,17.3,29.9,N/A,,Scattered Clouds,300,2014-02-21 02:15:00
8:35 PM,48.0,32.5,55,29.75,10.0,WNW,20.7,34.5,N/A,,Scattered Clouds,300,2014-02-21 02:35:00
8:55 PM,46.8,30.9,54,29.77,10.0,WNW,18.4,24.2,N/A,,Scattered Clouds,290,2014-02-21 02:55:00
9:15 PM,45.9,30.4,55,29.78,10.0,WNW,9.2,18.4,N/A,,Clear,290,2014-02-21 03:15:00
9:35 PM,45.0,29.7,55,29.78,10.0,WNW,12.7,27.6,N/A,,Scattered Clouds,290,2014-02-21 03:35:00
9:55 PM,44.6,29.5,55,29.79,10.0,WNW,13.8,21.9,N/A,,Scattered Clouds,290,2014-02-21 03:55:00
10:15 PM,44.1,28.9,55,29.80,10.0,WNW,10.4,21.9,N/A,,Clear,290,2014-02-21 04:15:00
10:35 PM,43.7,28.2,54,29.82,10.0,West,6.9,18.4,N/A,,Clear,270,2014-02-21 04:35:00
10:55 PM,42.8,28.9,58,29.82,10.0,WSW,4.6,-,N/A,,Clear,250,2014-02-21 04:55:00
11:15 PM,42.1,28.8,59,29.82,10.0,West,5.8,-,N/A,,Clear,260,2014-02-21 05:15:00
11:35 PM,41.5,28.0,59,29.83,10.0,SW,5.8,-,N/A,,Clear,230,2014-02-21 05:35:00
11:55 PM,41.0,28.4,61,29.83,10.0,SW,5.8,-,N/A,,Clear,220,2014-02-21 05:55:00